Date,TemperatureHighF,TemperatureAvgF,TemperatureLowF,DewpointHighF,DewpointAvgF,DewpointLowF,HumidityHigh,HumidityAvg,HumidityLow,PressureMaxIn,PressureMinIn,WindSpeedMaxMPH,WindSpeedAvgMPH,GustSpeedMaxMPH,PrecipitationSumIn
2012-1-1,58,40,28,49,36,24,99,86,69,30.10,29.63,10,2,25,0.04
2012-1-2,32,28,22,26,22,19,92,81,67,30.01,29.87,7,3,18,0.01
2012-1-3,23,19,11,20,14,7,91,80,63,30.29,30.00,10,3,20,0.01
2012-1-4,30,20,6,26,14,4,94,80,56,30.26,29.96,7,2,16,0.00
2012-1-5,41,32,25,30,27,22,91,81,63,30.06,29.90,6,1,11,0.00
2012-1-6,59,44,30,39,33,25,83,65,45,29.91,29.78,9,2,16,0.00
2012-1-7,54,44,26,45,34,24,93,71,45,30.11,29.79,7,2,16,0.00
2012-1-8,40,29,23,31,25,22,97,86,62,30.31,30.12,4,0,9,0.00
2012-1-9,46,32,25,32,26,22,94,80,47,30.29,30.00,5,0,9,0.00
2012-1-10,47,32,24,35,27,22,95,83,61,30.06,29.99,5,1,12,0.00
2012-1-11,42,32,21,41,31,20,99,97,95,29.99,29.46,7,1,13,0.71
2012-1-12,46,42,35,44,41,32,99,97,92,29.48,29.34,8,1,17,0.40
2012-1-13,34,21,17,32,17,12,95,85,76,29.98,29.46,8,4,23,0.19
2012-1-14,24,19,11,21,16,9,92,86,77,30.17,29.98,4,1,11,0.00
2012-1-15,25,17,8,19,13,6,94,86,72,30.48,30.16,4,1,9,0.01
2012-1-16,47,29,10,40,24,8,95,81,49,30.44,29.99,5,2,15,0.09
2012-1-17,54,47,38,51,44,32,97,91,77,30.00,29.61,8,4,23,0.69
2012-1-18,38,27,17,32,21,15,92,77,60,30.19,29.90,9,3,21,0.04
2012-1-19,36,25,14,29,20,12,95,81,51,30.12,29.83,10,2,22,0.07
2012-1-20,26,17,2,23,12,0,93,80,63,30.25,29.92,5,1,12,0.08
2012-1-21,29,27,24,28,26,22,97,94,91,30.27,29.83,5,1,11,0.43
2012-1-22,40,27,14,38,25,12,99,94,91,30.25,30.05,4,0,7,0.02
2012-1-23,64,46,32,54,43,32,99,88,64,30.04,29.62,12,2,23,0.22
2012-1-24,46,41,33,39,35,28,86,80,72,30.32,29.92,9,3,18,0.01
2012-1-25,41,34,31,34,30,28,95,85,75,30.37,30.15,5,1,8,0.02
2012-1-26,54,41,33,54,41,32,99,98,95,30.16,29.49,3,0,11,0.60
2012-1-27,56,42,31,56,41,30,99,95,89,30.05,29.38,6,2,22,0.49
2012-1-28,41,34,27,38,29,18,99,83,56,30.18,29.89,9,3,23,0.01
2012-1-29,42,33,26,32,22,18,90,65,46,30.22,29.94,9,3,22,0.01
2012-1-30,48,32,17,32,24,15,92,74,51,30.33,30.11,8,2,15,0.01
2012-1-31,61,53,45,44,33,30,75,46,37,30.18,30.01,8,3,18,0.04
2012-2-1,57,48,38,51,44,37,98,87,69,30.07,30.01,8,2,18,0.14
2012-2-2,44,38,27,37,34,25,98,86,69,30.39,30.01,7,2,14,0.01
2012-2-3,47,31,21,36,27,20,97,86,60,30.51,30.32,4,0,9,0.00
2012-2-4,39,31,24,37,30,23,99,96,89,30.32,30.07,2,0,5,0.23
2012-2-5,44,35,24,36,32,23,99,89,60,30.23,30.04,5,1,8,0.06
2012-2-6,48,31,19,34,26,18,97,82,49,30.22,30.07,6,1,13,0.00
2012-2-7,43,30,23,33,27,22,97,89,67,30.24,30.12,7,1,10,0.00
2012-2-8,34,30,23,34,29,22,99,94,90,30.24,30.13,5,0,9,0.10
2012-2-9,37,27,17,27,22,16,96,83,59,30.29,30.19,6,0,13,0.01
2012-2-10,34,31,25,30,27,23,95,84,71,30.19,29.88,5,1,11,0.01
2012-2-11,30,23,14,29,20,8,96,89,78,30.14,29.75,9,3,22,0.07
2012-2-12,23,17,10,16,12,7,90,80,72,30.18,30.11,7,2,15,0.01
2012-2-13,36,24,9,25,18,7,96,79,55,30.21,30.05,8,1,13,0.00
2012-2-14,41,34,29,36,31,25,98,88,67,30.05,29.91,7,1,16,0.02
2012-2-15,43,36,34,36,33,31,96,88,73,30.29,30.05,5,1,10,0.01
2012-2-16,48,42,34,47,41,33,99,97,94,30.16,29.94,7,1,13,0.22
2012-2-17,47,36,25,42,31,23,98,82,58,30.15,30.05,8,1,15,0.02
2012-2-18,50,35,22,38,28,21,96,77,55,30.13,29.94,9,2,19,0.00
2012-2-19,39,32,25,29,25,22,93,78,64,30.13,29.93,6,2,16,0.00
2012-2-20,41,28,19,28,22,16,93,77,52,30.34,30.08,5,1,10,0.00
2012-2-21,52,36,20,43,30,18,96,80,47,30.22,29.79,11,1,21,0.11
2012-2-22,55,44,30,42,37,29,98,77,48,29.82,29.44,9,2,22,0.11
2012-2-23,55,48,38,43,38,33,95,72,52,29.64,29.43,8,2,14,0.09
2012-2-24,58,45,35,56,40,28,99,84,60,29.75,29.37,11,3,26,0.17
2012-2-25,35,30,28,30,23,20,92,75,68,30.32,29.75,9,4,25,0.01
2012-2-26,43,30,18,26,21,16,93,73,46,30.45,30.26,7,1,14,0.01
2012-2-27,60,41,21,39,29,19,93,65,42,30.45,30.14,8,2,27,0.00
2012-2-28,48,33,19,30,25,17,99,75,45,30.50,30.16,6,1,11,0.00
2012-2-29,65,48,32,59,46,28,99,91,80,30.16,29.58,7,2,21,1.03
2012-3-1,58,44,27,55,36,26,94,74,62,29.94,29.58,10,3,22,0.11
2012-3-2,58,42,24,55,38,23,98,88,58,29.93,29.45,8,2,19,0.31
2012-3-3,56,43,29,54,34,25,93,71,56,29.80,29.49,10,4,28,0.29
2012-3-4,35,31,28,29,26,23,93,79,69,29.88,29.75,8,2,13,0.02
2012-3-5,33,28,21,27,22,16,96,81,61,30.47,29.87,9,2,15,0.02
2012-3-6,52,30,16,32,22,14,95,75,36,30.55,30.34,8,2,16,0.00
2012-3-7,67,50,30,42,35,25,83,59,38,30.43,30.20,9,2,22,0.00
2012-3-8,66,55,41,54,48,35,96,79,59,30.23,29.95,12,4,24,0.81
2012-6-18,79,77,76,75,73,72,88,88,87,30.01,30.00,3,2,9,0.21
2012-6-19,88,77,62,75,70,62,99,81,59,30.15,30.06,5,1,12,0.02
2012-9-28,63,57,46,57,54,45,99,89,70,30.15,30.06,3,0,7,0.01
2012-9-29,63,50,39,54,47,38,99,89,62,30.10,29.95,3,0,9,0.01
2012-9-30,61,50,41,56,48,41,99,94,79,29.96,29.86,5,0,13,0.02
2012-10-1,65,52,41,57,49,40,99,91,68,29.97,29.81,3,0,13,0.01
2012-10-2,76,65,54,73,64,54,99,97,87,29.89,29.79,3,0,8,0.42
2012-10-3,71,66,61,66,64,61,99,95,82,30.11,29.88,3,0,8,0.01
2012-12-13,44,28,16,34,23,15,96,85,54,30.42,30.28,4,0,7,0.01